Regional Weather Roundup
Issued by NWS Portland, ME

Current Version | Previous Version | Text Only | Print | Product List | Glossary Off
Versions: 1 2 3 4 5 6 7 8 9 10 11 12 13 14 15 16 17 18 19 20 21 22 23 24 25 26 27 28 29 30 31 32 33 34 35 36 37 38 39 40 41 42 43 44 45 46 47 48 49 50
064 ASUS41 KGYX 282110 RWRGYX WEATHER ROUNDUP FOR MAINE AND NEW HAMPSHIRE NATIONAL WEATHER SERVICE GRAY ME 500 PM EDT SUN MAY 28 2017 MEZ002-005-006-010-012-015-018-020-021-024-026-027-029-282200- MAINE CITY SKY/WX TMP DP RH WIND PRES REMARKS PORTLAND PTSUNNY 54 46 74 S7 30.01F SANFORD MOSUNNY 57 48 72 VRB7 30.00S BAR HARBOR PTSUNNY 53 45 74 SW13 30.03R WISCASSET SUNNY 57 46 66 S8 30.03S ROCKLAND MOSUNNY 54 46 74 S10 30.03S FRYEBURG MOSUNNY 71 51 49 E15 29.95S LEWISTONAUBURN SUNNY 60 50 69 S10 29.99F AUGUSTA SUNNY 62 47 57 S10 29.99S WATERVILLE MOSUNNY 66 50 56 S8 29.95S BANGOR PTSUNNY 62 48 60 S16 29.98R GREENVILLE N/A 69 46 43 S7 29.92F MILLINOCKET MOSUNNY 72 47 40 SE6 29.94S HOULTON MOSUNNY 70 48 45 SE6 29.92R PRESQUE ISLE MOSUNNY 70 50 49 S6 29.93R FRENCHVILLE MOSUNNY 67 44 43 NW6 29.92R CARIBOU PTSUNNY 70 51 51 VRB6 29.91R $$ NHZ002-005-008-009-011-012-014-282200- NEW HAMPSHIRE CITY SKY/WX TMP DP RH WIND PRES REMARKS PORTSMOUTH PTSUNNY 55 48 77 E8 29.99S ROCHESTER CLOUDY 59 49 69 S8 29.98F NASHUA CLOUDY 66 56 70 SE10 29.97R MANCHESTER CLOUDY 67 54 63 SE12 29.95R CONCORD CLOUDY 68 56 65 VRB5 29.95R LACONIA MOSUNNY 70 53 54 S8 29.94F PLYMOUTH FAIR 74 54 49 E7 29.91F BERLIN CLOUDY 72 46 39 S10 29.92S WHITEFIELD CLOUDY 67 49 52 CALM 29.91F JAFFREY CLOUDY 67 57 70 S7 29.96S LEBANON CLOUDY 75 52 44 SW13G18 29.90F MT WASHINGTON CLOUDY 45 39 81 S13 N/A $$ VTZ005-007-008-282200- VERMONT CITY SKY/WX TMP DP RH WIND PRES REMARKS ST JOHNSBURY N/A 75 46 35 MISG 29.87F MONTPELIER MOSUNNY 73 47 39 S9 29.93F BURLINGTON PTSUNNY 77 50 38 S10 29.85F $$ MAZ007-012-024-CTZ003-RIZ002-NYZ038-NYZ072-282200- SOUTHERN NEW ENGLAND AND NY CITY SKY/WX TMP DP RH WIND PRES REMARKS BOSTON CLOUDY 60 54 80 N5 29.98S WORCESTER CLOUDY 64 52 64 S9 29.97S NANTUCKET CLOUDY 53 47 79 SE14 30.02F PROVIDENCE CLOUDY 64 52 64 S13 29.99S HARTFORD CLOUDY 70 56 61 S13 29.93F ALBANY CLOUDY 72 56 57 S10 29.88F NEW YORK CITY CLOUDY 69 51 52 S14 29.93R $$ ANZ081-ANZ082-ANZ150-NHZ014-MEZ023>029-282200- COASTAL MARINE OBSERVATIONS STATION/POSITION TIME TEMP WIND PRES WAVE AIR SEA DIR/SP/G HT/PER (UTC) (F) (DEG/KT/KT) (MB) (FT/S) MOUNT DESERT ROC 2100 47 1017.6R MATINICUS ROCK 2000 49 180/ 10/ 10 1016.6F ISLE OF SHOALS 2000 50 130/ 14/ 15 1015.6F JEFFREYS LEDGE 2036 49 N/A 3/ 4 CASHES LEDGE BUO 2050 49 49 1017.3R 2/ 8 GEORGES BANK BUO 1950 47 48 1017.0 4/ 8 $$ .............KEY.............. WCI - WIND CHILL TC - TEMPERATURE IN CELSIUS VSB - VISIBILITY IN MILES HX - HEAT INDEX FAIR- INDICATES FEW OR NO CLOUDS BELOW 12,000 FT, WITH NO SIGNIFICANT WEATHER AND/OR OBSTRUCTIONS TO VISIBILITY.

USA.gov is the U.S. government's official web portal to all federal, state and local government web resources and services.